Notices

What's New in latest Release from April 7th, 2021:

- Updated Glossary, including Speed of Maximum Gust, and Total Hourly Precipitation

- Updated national and regional climate services offices contacts and prices information

- Addition of station inventory lists for 1981-2010, 1971-2000, and 1961-1990 Normals.

If you haven't already, please take our survey and provide feedback about our website: https://eccc.sondage-survey.ca/f/LanguageSelection.aspx?s=442ca660-fcf1-47c0-95a9-59707d6fd709

Hourly Data Report for March 12, 2018

MIRAMICHI RCS
NEW BRUNSWICK

47°00'34.000" N
65°27'54.000" W
33.00 m
8100989
71744
ACQ

Download Data

Hourly Data (March 2018)
Hourly Data Report for March 12, 2018
TIME
LST
Temp Definition
°C
Dew Point Definition
°C
Rel Hum Definition
%
Precip. Amount Definition
mm

Wind Dir Definition
10's deg

Wind Spd Definition
km/h
Visibility Definition
km
Stn Press Definition
kPa
Hmdx Definition


Wind Chill Definition


Weather Definition


00:00 -0.3 -1.8 90 0.0 34 5   101.10   -2 LegendNANA
01:00 -0.4 -1.8 90 0.0 35 5   101.12   -2 LegendNANA
02:00 -0.3 -1.8 89 0.0 36 6   101.20   -2 LegendNANA
03:00 -0.4 -1.9 89 0.0 2 9   101.22   -4 LegendNANA
04:00 -0.4 -2.0 89 0.0 2 8   101.26   -3 LegendNANA
05:00 -0.6 -2.2 89 0.0 3 8   101.32   -3 LegendNANA
06:00 -0.8 -2.4 89 0.3 2 7   101.37   -3 LegendNANA
07:00 -0.8 -2.7 88 0.0 4 7   101.46   -3 LegendNANA
08:00 -1.2 -3.6 84 0.0 5 5   101.54   -3 LegendNANA
09:00 -0.3 -3.2 81 0.0 4 8   101.60   -3 LegendNANA
10:00 0.4 -3.2 77 0.0 8 12   101.62     LegendNANA
11:00 1.3 -3.2 72 0.0 6 7   101.61     LegendNANA
12:00 2.1 -3.4 67 0.0 7 9   101.61     LegendNANA
13:00 1.6 -2.8 73 0.0 10 7   101.59     LegendNANA
14:00 1.2 -2.0 79 0.0 9 13   101.59     LegendNANA
15:00 0.5 -2.6 79 0.0 8 14   101.64     LegendNANA
16:00 0.7 -2.4 80 0.0 7 12   101.68     LegendNANA
17:00 0.3 -2.6 81 0.0 8 11   101.70     LegendNANA
18:00 -0.2 -3.2 80 0.0 7 9   101.75   -3 LegendNANA
19:00 -0.6 -2.8 85 0.0 7 6   101.78   -3 LegendNANA
20:00 -1.0 -2.7 88 0.0 7 10   101.81   -5 LegendNANA
21:00 -1.4 -2.9 89 0.0 5 13   101.79   -6 LegendNANA
22:00 -3.3 -4.7 90 0.0 7 8   101.77   -7 LegendNANA
23:00 -3.4 -4.7 91 0.0 5 9   101.76   -7 LegendNANA

Notes on Data Quality.

Legend

  • E = Estimated
  • M = Missing
  • NA = Not Available*
  • [empty] = Indicates an unobserved value
Date modified: